When you browse on this site, cookies collect data to enhance your experience and personalize the content and advertising you see.
Visit our Privacy Policy to learn more. By continuing to use the site, you agree to this use of cookies and data.
  • In Italy
  • List of Countries
  • For 7 days
  • Water Temperature
  • Satellite Maps
  • Weather Map
  • Weather Widgets
  • user-avatar
    Login

    Hourly Weather Korçe

    Today, 22 March, Friday

    Time Temperature Precipitation Wind Pressure Humidity
    00:00 +4°C° 0 mm 2 mps 671 mmHg 85%
    01:00 +4°C° 0 mm 2 mps 671 mmHg 86%
    02:00 +3°C° 0 mm 2 mps 671 mmHg 87%
    03:00 +3°C° 0 mm 2 mps 671 mmHg 88%
    04:00 +3°C° 0 mm 2 mps 671 mmHg 89%
    05:00 +3°C° 0 mm 2 mps 671 mmHg 87%
    06:00 +4°C° 0 mm 2 mps 671 mmHg 86%
    07:00 +4°C° 0 mm 2 mps 672 mmHg 84%
    08:00 +5°C° 0 mm 3 mps 672 mmHg 76%
    09:00 +8°C° 0 mm 3 mps 672 mmHg 67%
    10:00 +10°C° 0 mm 3 mps 673 mmHg 59%
    11:00 +11°C° 0 mm 3 mps 673 mmHg 55%
    12:00 +11°C° 0 mm 3 mps 673 mmHg 52%
    13:00 +12°C° 0 mm 3 mps 673 mmHg 48%
    14:00 +12°C° 0 mm 3 mps 672 mmHg 49%
    15:00 +12°C° 0 mm 3 mps 672 mmHg 50%
    16:00 +11°C° 0 mm 3 mps 671 mmHg 51%
    17:00 +10°C° 0 mm 3 mps 671 mmHg 57%
    18:00 +8°C° 0 mm 2 mps 671 mmHg 64%
    19:00 +6°C° 0 mm 2 mps 670 mmHg 71%
    20:00 +6°C° 0 mm 2 mps 670 mmHg 74%
    21:00 +5°C° 0 mm 2 mps 670 mmHg 77%
    22:00 +5°C° 0 mm 2 mps 670 mmHg 80%
    23:00 +4°C° 0 mm 2 mps 670 mmHg 81%

    Tomorrow, 23 March, Saturday

    Time Temperature Precipitation Wind Pressure Humidity
    00:00 +4°C° 0 mm 2 mps 670 mmHg 82%
    01:00 +4°C° 0 mm 2 mps 670 mmHg 84%
    02:00 +4°C° 0 mm 2 mps 670 mmHg 84%
    03:00 +3°C° 0 mm 2 mps 669 mmHg 84%
    04:00 +3°C° 0 mm 2 mps 669 mmHg 84%
    05:00 +4°C° 0 mm 2 mps 669 mmHg 82%
    06:00 +4°C° 0 mm 2 mps 670 mmHg 79%
    07:00 +5°C° 0 mm 2 mps 670 mmHg 77%
    08:00 +7°C° 0 mm 2 mps 670 mmHg 68%
    09:00 +9°C° 0 mm 3 mps 671 mmHg 60%
    10:00 +11°C° 0 mm 3 mps 671 mmHg 51%
    11:00 +12°C° 0 mm 3 mps 671 mmHg 48%
    12:00 +13°C° 0 mm 3 mps 671 mmHg 46%
    13:00 +14°C° 0 mm 3 mps 671 mmHg 43%
    14:00 +14°C° 0 mm 3 mps 671 mmHg 44%
    15:00 +14°C° 0 mm 3 mps 670 mmHg 45%
    16:00 +14°C° 0 mm 2 mps 670 mmHg 45%
    17:00 +13°C° 0 mm 2 mps 670 mmHg 52%
    18:00 +10°C° 0 mm 2 mps 669 mmHg 58%
    19:00 +8°C° 0 mm 2 mps 669 mmHg 65%
    20:00 +8°C° 0 mm 2 mps 669 mmHg 66%
    21:00 +7°C° 0 mm 2 mps 669 mmHg 68%
    22:00 +7°C° 0 mm 2 mps 669 mmHg 70%
    23:00 +6°C° 0 mm 2 mps 669 mmHg 71%

    Day after tomorrow, 24 March, Sunday

    Time Temperature Precipitation Wind Pressure Humidity
    00:00 +6°C° 0 mm 2 mps 669 mmHg 71%
    01:00 +6°C° 0 mm 2 mps 669 mmHg 72%
    02:00 +5°C° 0 mm 2 mps 669 mmHg 72%
    03:00 +5°C° 0 mm 2 mps 668 mmHg 73%
    04:00 +5°C° 0 mm 2 mps 668 mmHg 73%
    05:00 +5°C° 0 mm 2 mps 668 mmHg 72%
    06:00 +6°C° 0 mm 2 mps 669 mmHg 71%
    07:00 +6°C° 0 mm 2 mps 669 mmHg 70%
    08:00 +8°C° 0 mm 2 mps 670 mmHg 61%
    09:00 +10°C° 0 mm 2 mps 670 mmHg 53%
    10:00 +13°C° 0 mm 2 mps 671 mmHg 44%
    11:00 +14°C° 0 mm 2 mps 671 mmHg 41%
    12:00 +15°C° 0 mm 2 mps 671 mmHg 38%
    13:00 +16°C° 0 mm 2 mps 671 mmHg 35%
    14:00 +16°C° 0 mm 2 mps 670 mmHg 36%
    15:00 +15°C° 0 mm 2 mps 670 mmHg 37%
    16:00 +15°C° 0 mm 2 mps 669 mmHg 39%
    17:00 +13°C° 0 mm 2 mps 669 mmHg 47%
    18:00 +10°C° 0 mm 2 mps 669 mmHg 55%
    19:00 +8°C° 0 mm 2 mps 668 mmHg 63%
    20:00 +9°C° 0 mm 1 mps 668 mmHg 63%
    21:00 +8°C° 0 mm 1 mps 668 mmHg 64%
    22:00 +8°C° 0 mm 1 mps 668 mmHg 65%
    23:00 +8°C° 0 mm 1 mps 668 mmHg 65%

    25 March, Monday

    Time Temperature Precipitation Wind Pressure Humidity
    00:00 +7°C° 0 mm 1 mps 668 mmHg 64%
    01:00 +7°C° 0 mm 1 mps 667 mmHg 64%
    02:00 +7°C° 0 mm 1 mps 667 mmHg 64%
    03:00 +7°C° 0 mm 1 mps 667 mmHg 64%
    04:00 +6°C° 0 mm 1 mps 667 mmHg 65%
    05:00 +7°C° 0 mm 1 mps 667 mmHg 63%
    06:00 +8°C° 0 mm 1 mps 668 mmHg 61%
    07:00 +9°C° 0 mm 1 mps 668 mmHg 59%
    08:00 +11°C° 0 mm 1 mps 668 mmHg 54%
    09:00 +13°C° 0 mm 1 mps 669 mmHg 48%
    10:00 +15°C° 0 mm 1 mps 669 mmHg 43%
    11:00 +15°C° 0 mm 1 mps 669 mmHg 42%
    12:00 +16°C° 0 mm 2 mps 669 mmHg 40%
    13:00 +16°C° 0 mm 2 mps 668 mmHg 39%
    14:00 +16°C° 0 mm 2 mps 668 mmHg 43%
    15:00 +15°C° 0 mm 2 mps 667 mmHg 47%
    16:00 +14°C° 0 mm 2 mps 667 mmHg 52%
    17:00 +13°C° 0.1 mm 2 mps 666 mmHg 62%
    18:00 +10°C° 0.1 mm 2 mps 666 mmHg 72%
    19:00 +9°C° 0.1 mm 1 mps 666 mmHg 82%
    20:00 +9°C° 0.1 mm 1 mps 666 mmHg 82%
    21:00 +8°C° 0.1 mm 1 mps 666 mmHg 83%
    22:00 +8°C° 0.1 mm 1 mps 666 mmHg 84%
    23:00 +7°C° 0 mm 1 mps 665 mmHg 83%

    26 March, Tuesday

    Time Temperature Precipitation Wind Pressure Humidity
    00:00 +7°C° 0 mm 1 mps 665 mmHg 82%
    01:00 +7°C° 0 mm 1 mps 665 mmHg 81%
    02:00 +6°C° 0 mm 1 mps 665 mmHg 81%
    03:00 +6°C° 0 mm 1 mps 665 mmHg 81%
    04:00 +6°C° 0 mm 1 mps 664 mmHg 81%
    05:00 +6°C° 0 mm 1 mps 665 mmHg 79%
    06:00 +5°C° 0 mm 2 mps 665 mmHg 76%
    07:00 +6°C° 0 mm 2 mps 665 mmHg 74%
    08:00 +6°C° 0.2 mm 2 mps 665 mmHg 70%
    09:00 +7°C° 0.2 mm 2 mps 665 mmHg 66%
    10:00 +8°C° 0.2 mm 2 mps 666 mmHg 62%
    11:00 +7°C° 0.6 mm 2 mps 665 mmHg 64%
    12:00 +7°C° 0.6 mm 2 mps 665 mmHg 65%
    13:00 +6°C° 0.6 mm 2 mps 664 mmHg 67%
    14:00 +5°C° 0.1 mm 3 mps 664 mmHg 66%
    15:00 +5°C° 0.1 mm 3 mps 664 mmHg 65%
    16:00 +4°C° 0.1 mm 3 mps 664 mmHg 64%
    17:00 +3°C° 0.8 mm 3 mps 664 mmHg 69%
    18:00 +2°C° 0.8 mm 3 mps 664 mmHg 74%
    19:00 -1°C° 0.8 mm 4 mps 664 mmHg 79%
    20:00 0°C° 0.3 mm 3 mps 665 mmHg 78%
    21:00 -1°C° 0.3 mm 3 mps 665 mmHg 77%
    22:00 -2°C° 0.3 mm 3 mps 665 mmHg 76%
    23:00 -4°C° 0 mm 3 mps 664 mmHg 77%

    27 March, Wednesday

    Time Temperature Precipitation Wind Pressure Humidity
    00:00 -5°C° 0 mm 3 mps 664 mmHg 78%
    01:00 -6°C° 0 mm 3 mps 664 mmHg 79%
    02:00 -6°C° 0 mm 3 mps 664 mmHg 79%
    03:00 -6°C° 0 mm 3 mps 664 mmHg 79%
    04:00 -6°C° 0 mm 3 mps 664 mmHg 79%
    05:00 -5°C° 0 mm 4 mps 665 mmHg 77%
    06:00 -4°C° 0 mm 4 mps 666 mmHg 74%
    07:00 -4°C° 0 mm 5 mps 666 mmHg 71%
    08:00 -2°C° 0 mm 5 mps 667 mmHg 69%
    09:00 0°C° 0 mm 5 mps 667 mmHg 66%
    10:00 +1°C° 0 mm 6 mps 668 mmHg 63%
    11:00 +1°C° 0 mm 5 mps 668 mmHg 62%
    12:00 +2°C° 0 mm 5 mps 668 mmHg 60%
    13:00 +3°C° 0 mm 4 mps 668 mmHg 59%
    14:00 +3°C° 0 mm 4 mps 668 mmHg 58%
    15:00 +4°C° 0 mm 4 mps 668 mmHg 57%
    16:00 +4°C° 0 mm 4 mps 668 mmHg 56%
    17:00 +2°C° 0 mm 3 mps 668 mmHg 61%
    18:00 +1°C° 0 mm 3 mps 668 mmHg 67%
    19:00 +1°C° 0 mm 2 mps 668 mmHg 72%
    20:00 -1°C° 0 mm 2 mps 669 mmHg 72%
    21:00 -1°C° 0 mm 2 mps 669 mmHg 73%
    22:00 -2°C° 0 mm 2 mps 669 mmHg 74%
    23:00 -2°C° 0 mm 2 mps 669 mmHg 74%
    Show more